Time,TemperatureF,DewpointF,PressureIn,WindDirection,WindDirectionDegrees,WindSpeedMPH,WindSpeedGustMPH,Humidity,HourlyPrecipIn,Conditions,Clouds,dailyrainin,SoftwareType,DateUTC
2013-05-28 00:02:00,74.0,52.5,29.67,NW,315,25.0,39.0,47,0.00,,---,0.00,VWS V14.00,2013-05-28 07:02:00,
2013-05-28 00:07:00,73.7,52.2,29.67,NW,304,34.0,37.0,47,0.00,,---,0.00,VWS V14.00,2013-05-28 07:07:00,
2013-05-28 00:12:00,72.8,53.1,29.67,NW,304,35.0,35.0,50,0.00,,---,0.00,VWS V14.00,2013-05-28 07:12:00,
2013-05-28 00:17:00,72.1,53.0,29.67,NW,304,18.0,22.0,51,0.00,,---,0.00,VWS V14.00,2013-05-28 07:17:00,
2013-05-28 00:22:00,71.9,52.8,29.67,WNW,293,29.0,29.0,51,0.00,,---,0.00,VWS V14.00,2013-05-28 07:22:00,
2013-05-28 00:27:00,72.0,52.9,29.67,NW,317,24.0,34.0,51,0.00,,---,0.00,VWS V14.00,2013-05-28 07:27:00,
2013-05-28 00:32:00,71.9,52.8,29.67,WNW,288,29.0,34.0,51,0.00,,---,0.00,VWS V14.00,2013-05-28 07:32:00,
2013-05-28 00:37:00,71.6,52.5,29.67,WNW,286,16.0,24.0,51,0.00,,---,0.00,VWS V14.00,2013-05-28 07:37:00,
2013-05-28 00:42:00,71.6,52.5,29.67,WNW,284,17.0,28.0,51,0.00,,---,0.00,VWS V14.00,2013-05-28 07:42:00,
2013-05-28 00:47:00,71.6,52.5,29.67,WNW,286,21.0,28.0,51,0.00,,---,0.00,VWS V14.00,2013-05-28 07:47:00,
2013-05-28 00:52:00,71.7,52.6,29.67,West,275,23.0,26.0,51,0.00,,---,0.00,VWS V14.00,2013-05-28 07:52:00,
2013-05-28 00:57:00,72.0,52.4,29.66,WNW,292,20.0,34.0,50,0.00,,---,0.00,VWS V14.00,2013-05-28 07:57:00,
2013-05-28 01:02:00,71.8,52.2,29.66,NW,304,22.0,43.0,50,0.00,,---,0.00,VWS V14.00,2013-05-28 08:02:00,
2013-05-28 01:07:00,71.9,52.3,29.66,WNW,293,28.0,33.0,50,0.00,,---,0.00,VWS V14.00,2013-05-28 08:07:00,
2013-05-28 01:12:00,71.5,52.4,29.66,West,281,30.0,36.0,51,0.00,,---,0.00,VWS V14.00,2013-05-28 08:12:00,
2013-05-28 01:17:00,70.5,52.6,29.66,West,279,22.0,41.0,53,0.00,,---,0.00,VWS V14.00,2013-05-28 08:17:00,
2013-05-28 01:22:00,70.0,52.6,29.65,WNW,288,22.0,40.0,54,0.00,,---,0.00,VWS V14.00,2013-05-28 08:22:00,
2013-05-28 01:27:00,70.3,52.4,29.65,WNW,303,30.0,38.0,53,0.00,,---,0.00,VWS V14.00,2013-05-28 08:27:00,
2013-05-28 01:32:00,70.5,52.0,29.65,NW,306,52.0,52.0,52,0.00,,---,0.00,VWS V14.00,2013-05-28 08:32:00,
2013-05-28 01:37:00,70.9,52.4,29.65,WNW,292,34.0,38.0,52,0.00,,---,0.00,VWS V14.00,2013-05-28 08:37:00,
2013-05-28 01:42:00,71.1,52.1,29.65,WNW,302,39.0,39.0,51,0.00,,---,0.00,VWS V14.00,2013-05-28 08:42:00,
2013-05-28 01:47:00,71.7,52.1,29.66,WNW,300,35.0,42.0,50,0.00,,---,0.00,VWS V14.00,2013-05-28 08:47:00,
2013-05-28 01:52:00,71.4,51.8,29.65,West,275,23.0,35.0,50,0.00,,---,0.00,VWS V14.00,2013-05-28 08:52:00,
2013-05-28 01:57:00,70.8,51.8,29.66,WNW,290,25.0,30.0,51,0.00,,---,0.00,VWS V14.00,2013-05-28 08:57:00,
2013-05-28 02:02:00,70.2,52.3,29.65,WNW,286,24.0,36.0,53,0.00,,---,0.00,VWS V14.00,2013-05-28 09:02:00,
2013-05-28 02:07:00,69.8,52.4,29.65,West,281,26.0,36.0,54,0.00,,---,0.00,VWS V14.00,2013-05-28 09:07:00,
2013-05-28 02:12:00,69.6,52.2,29.65,WNW,296,24.0,32.0,54,0.00,,---,0.00,VWS V14.00,2013-05-28 09:12:00,
2013-05-28 02:17:00,69.6,52.2,29.65,WNW,283,12.0,23.0,54,0.00,,---,0.00,VWS V14.00,2013-05-28 09:17:00,
2013-05-28 02:22:00,69.9,52.0,29.66,WNW,285,16.0,23.0,53,0.00,,---,0.00,VWS V14.00,2013-05-28 09:22:00,
2013-05-28 02:27:00,71.3,52.3,29.66,NW,324,12.0,24.0,51,0.00,,---,0.00,VWS V14.00,2013-05-28 09:27:00,
2013-05-28 02:32:00,71.8,52.2,29.65,WNW,291,25.0,42.0,50,0.00,,---,0.00,VWS V14.00,2013-05-28 09:32:00,
2013-05-28 02:37:00,72.0,52.4,29.64,WNW,300,46.0,58.0,50,0.00,,---,0.00,VWS V14.00,2013-05-28 09:37:00,
2013-05-28 02:42:00,72.4,52.2,29.64,WNW,300,40.0,66.0,49,0.00,,---,0.00,VWS V14.00,2013-05-28 09:42:00,
2013-05-28 02:47:00,72.9,51.5,29.64,NW,321,33.0,47.0,47,0.00,,---,0.00,VWS V14.00,2013-05-28 09:47:00,
2013-05-28 02:52:00,72.8,51.4,29.64,WNW,290,45.0,50.0,47,0.00,,---,0.00,VWS V14.00,2013-05-28 09:52:00,
2013-05-28 02:57:00,72.7,51.3,29.64,WNW,293,36.0,59.0,47,0.00,,---,0.00,VWS V14.00,2013-05-28 09:57:00,
2013-05-28 03:02:00,72.6,51.2,29.63,NW,313,39.0,57.0,47,0.00,,---,0.00,VWS V14.00,2013-05-28 10:02:00,
2013-05-28 03:07:00,72.8,50.8,29.63,NW,315,32.0,45.0,46,0.00,,---,0.00,VWS V14.00,2013-05-28 10:07:00,
2013-05-28 03:12:00,73.3,50.1,29.64,NW,326,26.0,45.0,44,0.00,,---,0.00,VWS V14.00,2013-05-28 10:12:00,
2013-05-28 03:17:00,73.5,50.3,29.64,WNW,292,39.0,57.0,44,0.00,,---,0.00,VWS V14.00,2013-05-28 10:17:00,
2013-05-28 03:22:00,72.6,50.7,29.64,WNW,303,40.0,52.0,46,0.00,,---,0.00,VWS V14.00,2013-05-28 10:22:00,
2013-05-28 03:27:00,72.7,50.8,29.64,NW,321,19.0,49.0,46,0.00,,---,0.00,VWS V14.00,2013-05-28 10:27:00,
2013-05-28 03:32:00,72.5,50.6,29.64,NW,315,30.0,43.0,46,0.00,,---,0.00,VWS V14.00,2013-05-28 10:32:00,
2013-05-28 03:37:00,72.5,50.6,29.64,NNW,339,30.0,44.0,46,0.00,,---,0.00,VWS V14.00,2013-05-28 10:37:00,
2013-05-28 03:42:00,72.5,50.6,29.64,NW,315,41.0,41.0,46,0.00,,---,0.00,VWS V14.00,2013-05-28 10:42:00,
2013-05-28 03:48:00,72.2,49.7,29.64,WNW,295,19.0,38.0,45,0.00,,---,0.00,VWS V14.00,2013-05-28 10:48:00,
2013-05-28 03:53:00,72.5,50.0,29.64,NW,311,28.0,34.0,45,0.00,,---,0.00,VWS V14.00,2013-05-28 10:53:00,
2013-05-28 03:58:00,72.5,49.4,29.63,North,360,45.0,45.0,44,0.00,,---,0.00,VWS V14.00,2013-05-28 10:58:00,
2013-05-28 04:03:00,72.6,49.5,29.63,NW,304,21.0,38.0,44,0.00,,---,0.00,VWS V14.00,2013-05-28 11:03:00,
2013-05-28 04:08:00,72.8,49.0,29.62,NW,317,42.0,54.0,43,0.00,,---,0.00,VWS V14.00,2013-05-28 11:08:00,
2013-05-28 04:13:00,73.2,48.8,29.62,NW,315,21.0,38.0,42,0.00,,---,0.00,VWS V14.00,2013-05-28 11:13:00,
2013-05-28 04:18:00,73.1,48.0,29.62,NNW,345,26.0,48.0,41,0.00,,---,0.00,VWS V14.00,2013-05-28 11:18:00,
2013-05-28 04:23:00,73.1,48.0,29.61,NNW,334,27.0,40.0,41,0.00,,---,0.00,VWS V14.00,2013-05-28 11:23:00,
2013-05-28 04:28:00,73.0,48.6,29.61,NNW,343,32.0,45.0,42,0.00,,---,0.00,VWS V14.00,2013-05-28 11:28:00,
2013-05-28 04:33:00,72.9,48.5,29.61,North,360,22.0,36.0,42,0.00,,---,0.00,VWS V14.00,2013-05-28 11:33:00,
2013-05-28 04:38:00,73.0,47.9,29.61,NW,319,25.0,38.0,41,0.00,,---,0.00,VWS V14.00,2013-05-28 11:38:00,
2013-05-28 04:43:00,73.0,48.6,29.61,NNW,348,27.0,36.0,42,0.00,,---,0.00,VWS V14.00,2013-05-28 11:43:00,
2013-05-28 04:48:00,73.1,48.0,29.61,NNW,342,20.0,42.0,41,0.00,,---,0.00,VWS V14.00,2013-05-28 11:48:00,
2013-05-28 04:53:00,73.1,48.0,29.61,NW,306,34.0,55.0,41,0.00,,---,0.00,VWS V14.00,2013-05-28 11:53:00,
2013-05-28 04:58:00,72.9,47.8,29.60,NNW,327,32.0,38.0,41,0.00,,---,0.00,VWS V14.00,2013-05-28 11:58:00,
2013-05-28 05:03:00,73.0,47.9,29.60,NW,323,23.0,45.0,41,0.00,,---,0.00,VWS V14.00,2013-05-28 12:03:00,
2013-05-28 05:08:00,73.1,48.0,29.60,North,360,16.0,35.0,41,0.00,,---,0.00,VWS V14.00,2013-05-28 12:08:00,
2013-05-28 05:13:00,73.0,47.9,29.60,NNW,328,18.0,30.0,41,0.00,,---,0.00,VWS V14.00,2013-05-28 12:13:00,
2013-05-28 05:18:00,73.1,48.0,29.60,NNW,329,28.0,45.0,41,0.00,,---,0.00,VWS V14.00,2013-05-28 12:18:00,
2013-05-28 05:23:00,73.3,47.5,29.61,NW,325,14.0,30.0,40,0.00,,---,0.00,VWS V14.00,2013-05-28 12:23:00,
2013-05-28 05:28:00,73.1,48.0,29.60,NNW,329,32.0,32.0,41,0.00,,---,0.00,VWS V14.00,2013-05-28 12:28:00,
2013-05-28 05:33:00,73.0,47.9,29.60,WNW,300,25.0,39.0,41,0.00,,---,0.00,VWS V14.00,2013-05-28 12:33:00,
2013-05-28 05:38:00,72.9,48.5,29.60,NW,326,18.0,40.0,42,0.00,,---,0.00,VWS V14.00,2013-05-28 12:38:00,
2013-05-28 05:43:00,72.8,48.4,29.60,NW,309,21.0,37.0,42,0.00,,---,0.00,VWS V14.00,2013-05-28 12:43:00,
2013-05-28 05:48:00,72.7,48.3,29.61,NW,323,32.0,32.0,42,0.00,,---,0.00,VWS V14.00,2013-05-28 12:48:00,
2013-05-28 05:53:00,72.4,48.7,29.61,NW,306,33.0,52.0,43,0.00,,---,0.00,VWS V14.00,2013-05-28 12:53:00,
2013-05-28 05:58:00,71.9,48.8,29.60,NW,326,21.0,26.0,44,0.00,,---,0.00,VWS V14.00,2013-05-28 12:58:00,
2013-05-28 06:03:00,71.8,49.3,29.60,NW,321,25.0,31.0,45,0.00,,---,0.00,VWS V14.00,2013-05-28 13:03:00,
2013-05-28 06:08:00,71.7,49.2,29.60,NW,317,14.0,34.0,45,0.00,,---,0.00,VWS V14.00,2013-05-28 13:08:00,
2013-05-28 06:13:00,71.2,49.4,29.61,NW,318,20.0,25.0,46,0.00,,---,0.00,VWS V14.00,2013-05-28 13:13:00,
2013-05-28 06:18:00,70.8,49.6,29.61,WNW,298,18.0,29.0,47,0.00,,---,0.00,VWS V14.00,2013-05-28 13:18:00,
2013-05-28 06:23:00,70.3,49.7,29.61,WNW,299,16.0,26.0,48,0.00,,---,0.00,VWS V14.00,2013-05-28 13:23:00,
2013-05-28 06:28:00,71.0,49.2,29.61,WNW,283,22.0,24.0,46,0.00,,---,0.00,VWS V14.00,2013-05-28 13:28:00,
2013-05-28 06:33:00,71.6,49.2,29.61,WNW,295,24.0,36.0,45,0.00,,---,0.00,VWS V14.00,2013-05-28 13:33:00,
2013-05-28 06:38:00,71.5,49.7,29.62,WNW,287,17.0,26.0,46,0.00,,---,0.00,VWS V14.00,2013-05-28 13:38:00,
2013-05-28 06:43:00,71.6,49.8,29.62,West,281,29.0,39.0,46,0.00,,---,0.00,VWS V14.00,2013-05-28 13:43:00,
2013-05-28 06:48:00,71.1,49.9,29.62,NW,310,15.0,34.0,47,0.00,,---,0.00,VWS V14.00,2013-05-28 13:48:00,
2013-05-28 06:53:00,71.6,49.2,29.61,WNW,302,43.0,49.0,45,0.00,,---,0.00,VWS V14.00,2013-05-28 13:53:00,
2013-05-28 06:58:00,72.2,49.7,29.62,WNW,290,18.0,32.0,45,0.00,,---,0.00,VWS V14.00,2013-05-28 13:58:00,
2013-05-28 07:03:00,71.3,50.0,29.62,WNW,296,20.0,39.0,47,0.00,,---,0.00,VWS V14.00,2013-05-28 14:03:00,
2013-05-28 07:08:00,71.5,50.2,29.63,WNW,297,28.0,36.0,47,0.00,,---,0.00,VWS V14.00,2013-05-28 14:08:00,
2013-05-28 07:13:00,71.8,49.3,29.63,WNW,288,24.0,30.0,45,0.00,,---,0.00,VWS V14.00,2013-05-28 14:13:00,
2013-05-28 07:18:00,72.0,49.5,29.63,WNW,291,20.0,34.0,45,0.00,,---,0.00,VWS V14.00,2013-05-28 14:18:00,
2013-05-28 07:23:00,72.2,49.1,29.62,West,279,16.0,36.0,44,0.00,,---,0.00,VWS V14.00,2013-05-28 14:23:00,
2013-05-28 07:28:00,72.5,49.4,29.62,WNW,288,20.0,29.0,44,0.00,,---,0.00,VWS V14.00,2013-05-28 14:28:00,
2013-05-28 07:33:00,73.4,48.3,29.62,NW,321,19.0,25.0,41,0.00,,---,0.00,VWS V14.00,2013-05-28 14:33:00,
2013-05-28 07:38:00,74.6,48.7,29.62,West,275,20.0,24.0,40,0.00,,---,0.00,VWS V14.00,2013-05-28 14:38:00,
2013-05-28 07:43:00,74.5,49.3,29.62,WNW,284,21.0,34.0,41,0.00,,---,0.00,VWS V14.00,2013-05-28 14:43:00,
2013-05-28 07:48:00,74.6,48.7,29.62,WNW,302,24.0,45.0,40,0.00,,---,0.00,VWS V14.00,2013-05-28 14:48:00,
2013-05-28 07:53:00,74.7,48.1,29.62,WNW,284,35.0,46.0,39,0.00,,---,0.00,VWS V14.00,2013-05-28 14:53:00,
2013-05-28 07:58:00,74.0,49.5,29.63,WNW,294,36.0,38.0,42,0.00,,---,0.00,VWS V14.00,2013-05-28 14:58:00,
2013-05-28 08:03:00,73.6,49.8,29.63,West,275,29.0,38.0,43,0.00,,---,0.00,VWS V14.00,2013-05-28 15:03:00,
2013-05-28 08:08:00,73.4,50.2,29.62,NW,305,32.0,50.0,44,0.00,,---,0.00,VWS V14.00,2013-05-28 15:08:00,
2013-05-28 08:13:00,72.8,50.8,29.62,WNW,289,42.0,59.0,46,0.00,,---,0.00,VWS V14.00,2013-05-28 15:13:00,
2013-05-28 08:18:00,72.5,50.6,29.63,WNW,289,30.0,57.0,46,0.00,,---,0.00,VWS V14.00,2013-05-28 15:18:00,
2013-05-28 08:23:00,72.4,50.5,29.63,WNW,294,23.0,56.0,46,0.00,,---,0.00,VWS V14.00,2013-05-28 15:23:00,
2013-05-28 08:28:00,71.8,50.5,29.63,West,272,39.0,52.0,47,0.00,,---,0.00,VWS V14.00,2013-05-28 15:28:00,
2013-05-28 08:33:00,71.6,50.9,29.63,WNW,286,45.0,53.0,48,0.00,,---,0.00,VWS V14.00,2013-05-28 15:33:00,
2013-05-28 08:38:00,71.6,50.9,29.64,West,262,32.0,46.0,48,0.00,,---,0.00,VWS V14.00,2013-05-28 15:38:00,
2013-05-28 08:43:00,71.4,51.3,29.64,West,281,35.0,56.0,49,0.00,,---,0.00,VWS V14.00,2013-05-28 15:43:00,
2013-05-28 08:48:00,71.0,51.5,29.64,NW,304,25.0,56.0,50,0.00,,---,0.00,VWS V14.00,2013-05-28 15:48:00,
2013-05-28 08:53:00,71.5,51.4,29.64,West,279,38.0,54.0,49,0.00,,---,0.00,VWS V14.00,2013-05-28 15:53:00,
2013-05-28 08:58:00,71.5,51.4,29.64,WNW,298,42.0,49.0,49,0.00,,---,0.00,VWS V14.00,2013-05-28 15:58:00,
2013-05-28 09:03:00,71.5,51.4,29.64,NW,321,31.0,41.0,49,0.00,,---,0.00,VWS V14.00,2013-05-28 16:03:00,
2013-05-28 09:08:00,72.5,51.2,29.64,WNW,284,32.0,49.0,47,0.00,,---,0.00,VWS V14.00,2013-05-28 16:08:00,
2013-05-28 09:13:00,73.0,51.0,29.64,NW,315,36.0,47.0,46,0.00,,---,0.00,VWS V14.00,2013-05-28 16:13:00,
2013-05-28 09:18:00,72.2,51.4,29.65,West,279,22.0,47.0,48,0.00,,---,0.00,VWS V14.00,2013-05-28 16:18:00,
2013-05-28 09:23:00,72.1,51.3,29.64,WNW,295,37.0,56.0,48,0.00,,---,0.00,VWS V14.00,2013-05-28 16:23:00,
2013-05-28 09:28:00,72.6,51.2,29.64,WNW,298,30.0,54.0,47,0.00,,---,0.00,VWS V14.00,2013-05-28 16:28:00,
2013-05-28 09:33:00,73.0,51.6,29.64,West,278,23.0,50.0,47,0.00,,---,0.00,VWS V14.00,2013-05-28 16:33:00,
2013-05-28 09:38:00,73.1,51.7,29.64,WNW,287,45.0,46.0,47,0.00,,---,0.00,VWS V14.00,2013-05-28 16:38:00,
2013-05-28 09:43:00,72.8,52.0,29.64,WNW,294,38.0,49.0,48,0.00,,---,0.00,VWS V14.00,2013-05-28 16:43:00,
2013-05-28 09:48:00,73.3,51.9,29.64,WNW,300,45.0,49.0,47,0.00,,---,0.00,VWS V14.00,2013-05-28 16:48:00,
2013-05-28 09:53:00,73.3,51.9,29.63,WNW,283,28.0,53.0,47,0.00,,---,0.00,VWS V14.00,2013-05-28 16:53:00,
2013-05-28 09:58:00,73.8,51.8,29.63,WNW,288,31.0,48.0,46,0.00,,---,0.00,VWS V14.00,2013-05-28 16:58:00,
2013-05-28 10:04:00,74.1,52.0,29.63,WNW,289,37.0,52.0,46,0.00,,---,0.00,VWS V14.00,2013-05-28 17:04:00,
2013-05-28 10:09:00,74.8,52.1,29.64,NW,305,35.0,53.0,45,0.00,,---,0.00,VWS V14.00,2013-05-28 17:09:00,
2013-05-28 10:14:00,75.1,51.7,29.64,WNW,302,31.0,50.0,44,0.00,,---,0.00,VWS V14.00,2013-05-28 17:14:00,
2013-05-28 10:19:00,75.1,51.7,29.63,WNW,300,48.0,52.0,44,0.00,,---,0.00,VWS V14.00,2013-05-28 17:19:00,
2013-05-28 10:24:00,74.9,51.5,29.63,NW,305,33.0,50.0,44,0.00,,---,0.00,VWS V14.00,2013-05-28 17:24:00,
2013-05-28 10:29:00,75.4,52.0,29.63,West,281,35.0,52.0,44,0.00,,---,0.00,VWS V14.00,2013-05-28 17:29:00,
2013-05-28 10:34:00,75.8,52.4,29.63,NW,305,28.0,46.0,44,0.00,,---,0.00,VWS V14.00,2013-05-28 17:34:00,
2013-05-28 10:39:00,76.1,52.0,29.63,NNW,340,30.0,42.0,43,0.00,,---,0.00,VWS V14.00,2013-05-28 17:39:00,
2013-05-28 10:44:00,76.7,52.5,29.64,NW,305,26.0,38.0,43,0.00,,---,0.00,VWS V14.00,2013-05-28 17:44:00,
2013-05-28 10:49:00,76.0,51.9,29.64,NW,306,39.0,51.0,43,0.00,,---,0.00,VWS V14.00,2013-05-28 17:49:00,
2013-05-28 10:54:00,75.7,52.3,29.64,WNW,298,31.0,55.0,44,0.00,,---,0.00,VWS V14.00,2013-05-28 17:54:00,
2013-05-28 10:59:00,75.4,52.0,29.64,WNW,299,23.0,56.0,44,0.00,,---,0.00,VWS V14.00,2013-05-28 17:59:00,
2013-05-28 11:04:00,75.0,52.2,29.64,NW,304,27.0,54.0,45,0.00,,---,0.00,VWS V14.00,2013-05-28 18:04:00,
2013-05-28 11:09:00,75.2,52.4,29.64,NW,319,39.0,55.0,45,0.00,,---,0.00,VWS V14.00,2013-05-28 18:09:00,
2013-05-28 11:14:00,75.7,52.9,29.65,West,277,50.0,54.0,45,0.00,,---,0.00,VWS V14.00,2013-05-28 18:14:00,
2013-05-28 11:19:00,75.5,52.7,29.64,NW,323,49.0,50.0,45,0.00,,---,0.00,VWS V14.00,2013-05-28 18:19:00,
2013-05-28 11:24:00,75.3,52.5,29.65,NNW,327,49.0,55.0,45,0.00,,---,0.00,VWS V14.00,2013-05-28 18:24:00,
2013-05-28 11:29:00,75.8,53.0,29.65,WNW,293,29.0,45.0,45,0.00,,---,0.00,VWS V14.00,2013-05-28 18:29:00,
2013-05-28 11:34:00,76.2,52.7,29.64,WNW,288,33.0,39.0,44,0.00,,---,0.00,VWS V14.00,2013-05-28 18:34:00,
2013-05-28 11:39:00,77.2,52.4,29.64,West,277,31.0,39.0,42,0.00,,---,0.00,VWS V14.00,2013-05-28 18:39:00,
2013-05-28 11:44:00,78.1,52.5,29.64,NW,317,36.0,42.0,41,0.00,,---,0.00,VWS V14.00,2013-05-28 18:44:00,
2013-05-28 11:49:00,78.1,51.8,29.63,WNW,286,35.0,44.0,40,0.00,,---,0.00,VWS V14.00,2013-05-28 18:49:00,
2013-05-28 11:54:00,78.3,52.0,29.63,WNW,287,22.0,42.0,40,0.00,,---,0.00,VWS V14.00,2013-05-28 18:54:00,
2013-05-28 11:59:00,78.8,51.8,29.63,WNW,300,32.0,45.0,39,0.00,,---,0.00,VWS V14.00,2013-05-28 18:59:00,
2013-05-28 12:04:00,79.4,51.6,29.63,WNW,293,42.0,48.0,38,0.00,,---,0.00,VWS V14.00,2013-05-28 19:04:00,
2013-05-28 12:09:00,79.0,51.2,29.64,WNW,288,40.0,47.0,38,0.00,,---,0.00,VWS V14.00,2013-05-28 19:09:00,
2013-05-28 12:14:00,78.0,51.8,29.63,NW,320,34.0,42.0,40,0.00,,---,0.00,VWS V14.00,2013-05-28 19:14:00,
2013-05-28 12:19:00,78.3,52.0,29.63,WNW,290,24.0,40.0,40,0.00,,---,0.00,VWS V14.00,2013-05-28 19:19:00,
2013-05-28 12:24:00,78.9,51.9,29.63,NW,319,41.0,50.0,39,0.00,,---,0.00,VWS V14.00,2013-05-28 19:24:00,
2013-05-28 12:29:00,77.8,52.2,29.62,WNW,294,42.0,48.0,41,0.00,,---,0.00,VWS V14.00,2013-05-28 19:29:00,
2013-05-28 12:34:00,77.0,51.5,29.63,NW,315,39.0,52.0,41,0.00,,---,0.00,VWS V14.00,2013-05-28 19:34:00,
2013-05-28 12:39:00,77.5,52.0,29.63,NW,311,40.0,50.0,41,0.00,,---,0.00,VWS V14.00,2013-05-28 19:39:00,
2013-05-28 12:44:00,78.3,52.0,29.62,NW,316,32.0,48.0,40,0.00,,---,0.00,VWS V14.00,2013-05-28 19:44:00,
2013-05-28 12:49:00,77.8,51.6,29.62,NW,305,23.0,44.0,40,0.00,,---,0.00,VWS V14.00,2013-05-28 19:49:00,
2013-05-28 12:54:00,78.8,51.8,29.62,WNW,293,32.0,47.0,39,0.00,,---,0.00,VWS V14.00,2013-05-28 19:54:00,
2013-05-28 12:59:00,79.4,51.6,29.62,WNW,292,30.0,48.0,38,0.00,,---,0.00,VWS V14.00,2013-05-28 19:59:00,
2013-05-28 13:04:00,79.9,51.3,29.62,WNW,283,30.0,38.0,37,0.00,,---,0.00,VWS V14.00,2013-05-28 20:04:00,
2013-05-28 13:09:00,79.7,51.2,29.62,WNW,291,21.0,40.0,37,0.00,,---,0.00,VWS V14.00,2013-05-28 20:09:00,
2013-05-28 13:14:00,79.3,51.5,29.61,WNW,294,30.0,40.0,38,0.00,,---,0.00,VWS V14.00,2013-05-28 20:14:00,
2013-05-28 13:19:00,80.5,51.9,29.61,WNW,286,32.0,44.0,37,0.00,,---,0.00,VWS V14.00,2013-05-28 20:19:00,
2013-05-28 13:24:00,80.8,51.4,29.61,WNW,300,23.0,38.0,36,0.00,,---,0.00,VWS V14.00,2013-05-28 20:24:00,
2013-05-28 13:29:00,80.3,51.7,29.61,NNW,329,31.0,45.0,37,0.00,,---,0.00,VWS V14.00,2013-05-28 20:29:00,
2013-05-28 13:34:00,79.8,51.2,29.62,NW,306,43.0,54.0,37,0.00,,---,0.00,VWS V14.00,2013-05-28 20:34:00,
2013-05-28 13:39:00,79.7,51.2,29.61,NW,325,46.0,47.0,37,0.00,,---,0.00,VWS V14.00,2013-05-28 20:39:00,
2013-05-28 13:44:00,80.3,50.9,29.61,WNW,292,23.0,50.0,36,0.00,,---,0.00,VWS V14.00,2013-05-28 20:44:00,
2013-05-28 13:49:00,80.9,51.5,29.61,WNW,296,47.0,47.0,36,0.00,,---,0.00,VWS V14.00,2013-05-28 20:49:00,
2013-05-28 13:54:00,81.1,50.9,29.61,North,360,35.0,40.0,35,0.00,,---,0.00,VWS V14.00,2013-05-28 20:54:00,
2013-05-28 13:59:00,81.6,51.3,29.61,WNW,285,30.0,43.0,35,0.00,,---,0.00,VWS V14.00,2013-05-28 20:59:00,
2013-05-28 14:04:00,82.1,51.8,29.61,WNW,294,28.0,44.0,35,0.00,,---,0.00,VWS V14.00,2013-05-28 21:04:00,
2013-05-28 14:09:00,82.7,51.5,29.61,WNW,288,28.0,42.0,34,0.00,,---,0.00,VWS V14.00,2013-05-28 21:09:00,
2013-05-28 14:14:00,83.0,51.0,29.61,WNW,298,22.0,36.0,33,0.00,,---,0.00,VWS V14.00,2013-05-28 21:14:00,
2013-05-28 14:19:00,82.7,51.5,29.60,NW,319,27.0,40.0,34,0.00,,---,0.00,VWS V14.00,2013-05-28 21:19:00,
2013-05-28 14:24:00,83.6,51.5,29.60,NNW,332,33.0,36.0,33,0.00,,---,0.00,VWS V14.00,2013-05-28 21:24:00,
2013-05-28 14:29:00,83.5,51.4,29.60,WNW,289,41.0,50.0,33,0.00,,---,0.00,VWS V14.00,2013-05-28 21:29:00,
2013-05-28 14:34:00,83.8,51.7,29.60,WNW,294,28.0,47.0,33,0.00,,---,0.00,VWS V14.00,2013-05-28 21:34:00,
2013-05-28 14:39:00,84.1,51.9,29.60,NW,316,30.0,41.0,33,0.00,,---,0.00,VWS V14.00,2013-05-28 21:39:00,
2013-05-28 14:44:00,84.0,51.8,29.60,NNW,332,39.0,48.0,33,0.00,,---,0.00,VWS V14.00,2013-05-28 21:44:00,
2013-05-28 14:49:00,84.1,51.9,29.60,NW,305,18.0,44.0,33,0.00,,---,0.00,VWS V14.00,2013-05-28 21:49:00,
2013-05-28 14:54:00,84.5,52.3,29.60,WNW,293,39.0,45.0,33,0.00,,---,0.00,VWS V14.00,2013-05-28 21:54:00,
2013-05-28 14:59:00,84.3,52.1,29.59,WNW,297,39.0,46.0,33,0.00,,---,0.00,VWS V14.00,2013-05-28 21:59:00,
2013-05-28 15:04:00,84.0,51.8,29.59,NW,306,26.0,50.0,33,0.00,,---,0.00,VWS V14.00,2013-05-28 22:04:00,
2013-05-28 15:09:00,84.2,52.0,29.59,NW,325,42.0,49.0,33,0.00,,---,0.00,VWS V14.00,2013-05-28 22:09:00,
2013-05-28 15:14:00,84.2,52.0,29.59,WNW,297,37.0,48.0,33,0.00,,---,0.00,VWS V14.00,2013-05-28 22:14:00,
2013-05-28 15:19:00,84.5,52.3,29.58,WNW,302,30.0,52.0,33,0.00,,---,0.00,VWS V14.00,2013-05-28 22:19:00,
2013-05-28 15:24:00,84.1,51.9,29.58,NW,322,39.0,54.0,33,0.00,,---,0.00,VWS V14.00,2013-05-28 22:24:00,
2013-05-28 15:29:00,83.7,52.4,29.58,NW,315,44.0,57.0,34,0.00,,---,0.00,VWS V14.00,2013-05-28 22:29:00,
2013-05-28 15:34:00,83.7,51.6,29.58,WNW,288,31.0,54.0,33,0.00,,---,0.00,VWS V14.00,2013-05-28 22:34:00,
2013-05-28 15:39:00,84.8,52.5,29.59,WNW,296,42.0,51.0,33,0.00,,---,0.00,VWS V14.00,2013-05-28 22:39:00,
2013-05-28 15:44:00,84.4,52.2,29.58,West,281,41.0,53.0,33,0.00,,---,0.00,VWS V14.00,2013-05-28 22:44:00,
2013-05-28 15:49:00,83.9,51.8,29.58,WNW,283,36.0,56.0,33,0.00,,---,0.00,VWS V14.00,2013-05-28 22:49:00,
2013-05-28 15:54:00,83.7,51.6,29.58,NW,324,30.0,57.0,33,0.00,,---,0.00,VWS V14.00,2013-05-28 22:54:00,
2013-05-28 16:00:00,84.6,52.4,29.57,NW,310,25.0,55.0,33,0.00,,---,0.00,VWS V14.00,2013-05-28 23:00:00,
2013-05-28 16:05:00,84.1,51.1,29.56,WNW,289,39.0,60.0,32,0.00,,---,0.00,VWS V14.00,2013-05-28 23:05:00,
2013-05-28 16:10:00,84.4,51.3,29.57,WNW,293,39.0,61.0,32,0.00,,---,0.00,VWS V14.00,2013-05-28 23:10:00,
2013-05-28 16:15:00,84.4,51.3,29.56,WNW,298,55.0,55.0,32,0.00,,---,0.00,VWS V14.00,2013-05-28 23:15:00,
2013-05-28 16:20:00,84.9,50.0,29.57,West,268,50.0,56.0,30,0.00,,---,0.00,VWS V14.00,2013-05-28 23:20:00,
2013-05-28 16:25:00,85.2,51.2,29.57,WNW,290,33.0,54.0,31,0.00,,---,0.00,VWS V14.00,2013-05-28 23:25:00,
2013-05-28 16:30:00,84.8,50.8,29.57,WNW,302,28.0,46.0,31,0.00,,---,0.00,VWS V14.00,2013-05-28 23:30:00,
2013-05-28 16:35:00,84.9,50.0,29.57,WNW,285,23.0,51.0,30,0.00,,---,0.00,VWS V14.00,2013-05-28 23:35:00,
2013-05-28 16:40:00,85.1,50.2,29.57,NW,318,34.0,43.0,30,0.00,,---,0.00,VWS V14.00,2013-05-28 23:40:00,
2013-05-28 16:45:00,85.2,51.2,29.56,WNW,292,32.0,42.0,31,0.00,,---,0.00,VWS V14.00,2013-05-28 23:45:00,
2013-05-28 16:50:00,85.6,50.7,29.56,WNW,288,32.0,48.0,30,0.00,,---,0.00,VWS V14.00,2013-05-28 23:50:00,
2013-05-28 16:55:00,85.4,50.5,29.56,WNW,286,39.0,50.0,30,0.00,,---,0.00,VWS V14.00,2013-05-28 23:55:00,
2013-05-28 17:00:00,85.0,51.0,29.56,West,274,39.0,49.0,31,0.00,,---,0.00,VWS V14.00,2013-05-29 00:00:00,
2013-05-28 17:05:00,84.8,51.7,29.56,West,273,35.0,50.0,32,0.00,,---,0.00,VWS V14.00,2013-05-29 00:05:00,
2013-05-28 17:10:00,84.9,51.8,29.56,WNW,288,27.0,43.0,32,0.00,,---,0.00,VWS V14.00,2013-05-29 00:10:00,
2013-05-28 17:15:00,84.9,51.8,29.56,WNW,299,39.0,45.0,32,0.00,,---,0.00,VWS V14.00,2013-05-29 00:15:00,
2013-05-28 17:20:00,84.7,51.6,29.56,WNW,298,34.0,46.0,32,0.00,,---,0.00,VWS V14.00,2013-05-29 00:20:00,
2013-05-28 17:25:00,84.6,51.5,29.56,NW,305,28.0,48.0,32,0.00,,---,0.00,VWS V14.00,2013-05-29 00:25:00,
2013-05-28 17:30:00,84.3,51.3,29.56,WNW,291,30.0,46.0,32,0.00,,---,0.00,VWS V14.00,2013-05-29 00:30:00,
2013-05-28 17:35:00,84.4,51.3,29.56,WNW,298,26.0,51.0,32,0.00,,---,0.00,VWS V14.00,2013-05-29 00:35:00,
2013-05-28 17:40:00,83.9,52.6,29.56,WNW,283,23.0,50.0,34,0.00,,---,0.00,VWS V14.00,2013-05-29 00:40:00,
2013-05-28 17:45:00,83.5,52.2,29.56,WNW,286,30.0,53.0,34,0.00,,---,0.00,VWS V14.00,2013-05-29 00:45:00,
2013-05-28 17:50:00,83.5,52.2,29.56,NW,305,28.0,53.0,34,0.00,,---,0.00,VWS V14.00,2013-05-29 00:50:00,
2013-05-28 17:55:00,83.7,52.4,29.56,NNW,329,33.0,44.0,34,0.00,,---,0.00,VWS V14.00,2013-05-29 00:55:00,
2013-05-28 18:00:00,83.7,51.6,29.55,NW,306,42.0,49.0,33,0.00,,---,0.00,VWS V14.00,2013-05-29 01:00:00,
2013-05-28 18:05:00,83.7,52.4,29.55,WNW,299,34.0,36.0,34,0.00,,---,0.00,VWS V14.00,2013-05-29 01:05:00,
2013-05-28 18:10:00,83.1,51.9,29.55,WNW,295,32.0,53.0,34,0.00,,---,0.00,VWS V14.00,2013-05-29 01:10:00,
2013-05-28 18:15:00,82.9,52.5,29.55,WNW,286,38.0,49.0,35,0.00,,---,0.00,VWS V14.00,2013-05-29 01:15:00,
2013-05-28 18:20:00,82.8,51.6,29.55,WNW,294,32.0,48.0,34,0.00,,---,0.00,VWS V14.00,2013-05-29 01:20:00,
2013-05-28 18:25:00,82.7,52.3,29.55,North,360,23.0,50.0,35,0.00,,---,0.00,VWS V14.00,2013-05-29 01:25:00,
2013-05-28 18:30:00,82.0,52.4,29.55,WNW,291,35.0,50.0,36,0.00,,---,0.00,VWS V14.00,2013-05-29 01:30:00,
2013-05-28 18:35:00,81.7,52.9,29.55,WNW,291,28.0,50.0,37,0.00,,---,0.00,VWS V14.00,2013-05-29 01:35:00,
2013-05-28 18:40:00,81.3,52.6,29.55,NW,305,43.0,50.0,37,0.00,,---,0.00,VWS V14.00,2013-05-29 01:40:00,
2013-05-28 18:45:00,81.2,52.5,29.55,WNW,300,30.0,44.0,37,0.00,,---,0.00,VWS V14.00,2013-05-29 01:45:00,
2013-05-28 18:50:00,80.7,52.8,29.56,West,259,30.0,54.0,38,0.00,,---,0.00,VWS V14.00,2013-05-29 01:50:00,
2013-05-28 18:55:00,80.6,52.7,29.56,WNW,290,19.0,48.0,38,0.00,,---,0.00,VWS V14.00,2013-05-29 01:55:00,
2013-05-28 19:00:00,80.5,53.3,29.55,NW,306,21.0,56.0,39,0.00,,---,0.00,VWS V14.00,2013-05-29 02:00:00,
2013-05-28 19:05:00,80.0,53.5,29.56,WNW,285,29.0,53.0,40,0.00,,---,0.00,VWS V14.00,2013-05-29 02:05:00,
2013-05-28 19:10:00,79.6,53.2,29.56,NW,305,30.0,56.0,40,0.00,,---,0.00,VWS V14.00,2013-05-29 02:10:00,
2013-05-28 19:15:00,79.3,53.6,29.56,NW,317,39.0,45.0,41,0.00,,---,0.00,VWS V14.00,2013-05-29 02:15:00,
2013-05-28 19:20:00,78.7,53.7,29.56,WNW,297,32.0,48.0,42,0.00,,---,0.00,VWS V14.00,2013-05-29 02:20:00,
2013-05-28 19:25:00,78.4,54.1,29.56,NW,321,48.0,49.0,43,0.00,,---,0.00,VWS V14.00,2013-05-29 02:25:00,
2013-05-28 19:30:00,78.4,53.4,29.56,NW,314,24.0,44.0,42,0.00,,---,0.00,VWS V14.00,2013-05-29 02:30:00,
2013-05-28 19:35:00,78.4,54.1,29.57,WNW,298,40.0,49.0,43,0.00,,---,0.00,VWS V14.00,2013-05-29 02:35:00,
2013-05-28 19:40:00,78.1,53.8,29.57,WNW,303,29.0,48.0,43,0.00,,---,0.00,VWS V14.00,2013-05-29 02:40:00,
2013-05-28 19:45:00,77.6,54.0,29.57,WNW,300,20.0,50.0,44,0.00,,---,0.00,VWS V14.00,2013-05-29 02:45:00,
2013-05-28 19:50:00,77.6,54.0,29.57,NW,319,26.0,40.0,44,0.00,,---,0.00,VWS V14.00,2013-05-29 02:50:00,
2013-05-28 19:55:00,77.6,54.0,29.57,NW,306,30.0,52.0,44,0.00,,---,0.00,VWS V14.00,2013-05-29 02:55:00,
2013-05-28 20:00:00,77.5,53.9,29.57,NW,315,28.0,44.0,44,0.00,,---,0.00,VWS V14.00,2013-05-29 03:00:00,
2013-05-28 20:05:00,77.1,54.2,29.56,NW,306,34.0,48.0,45,0.00,,---,0.00,VWS V14.00,2013-05-29 03:05:00,
2013-05-28 20:10:00,76.9,54.6,29.57,NW,323,32.0,47.0,46,0.00,,---,0.00,VWS V14.00,2013-05-29 03:10:00,
2013-05-28 20:15:00,76.7,54.4,29.57,NW,309,22.0,44.0,46,0.00,,---,0.00,VWS V14.00,2013-05-29 03:15:00,
2013-05-28 20:20:00,76.4,54.7,29.57,North,360,38.0,46.0,47,0.00,,---,0.00,VWS V14.00,2013-05-29 03:20:00,
2013-05-28 20:25:00,76.2,54.5,29.57,NW,309,32.0,48.0,47,0.00,,---,0.00,VWS V14.00,2013-05-29 03:25:00,
2013-05-28 20:30:00,76.0,54.9,29.57,NW,305,32.0,47.0,48,0.00,,---,0.00,VWS V14.00,2013-05-29 03:30:00,
2013-05-28 20:35:00,75.5,55.0,29.57,NW,306,43.0,49.0,49,0.00,,---,0.00,VWS V14.00,2013-05-29 03:35:00,
2013-05-28 20:40:00,75.4,54.4,29.57,North,360,37.0,39.0,48,0.00,,---,0.00,VWS V14.00,2013-05-29 03:40:00,
2013-05-28 20:45:00,75.6,54.5,29.57,NNW,331,25.0,43.0,48,0.00,,---,0.00,VWS V14.00,2013-05-29 03:45:00,
2013-05-28 20:50:00,75.3,54.8,29.57,NW,307,47.0,49.0,49,0.00,,---,0.00,VWS V14.00,2013-05-29 03:50:00,
2013-05-28 20:55:00,75.1,54.7,29.57,NNW,331,21.0,49.0,49,0.00,,---,0.00,VWS V14.00,2013-05-29 03:55:00,
2013-05-28 21:00:00,75.0,54.6,29.58,NW,312,26.0,48.0,49,0.00,,---,0.00,VWS V14.00,2013-05-29 04:00:00,
2013-05-28 21:01:00,75.1,54.7,29.58,WNW,296,37.0,48.0,49,0.00,,---,0.00,VWS V14.00,2013-05-29 04:01:00,
2013-05-28 21:05:00,75.0,54.6,29.58,WNW,291,25.0,44.0,49,0.00,,---,0.00,VWS V14.00,2013-05-29 04:05:00,
2013-05-28 21:06:00,75.0,54.6,29.58,WNW,299,31.0,44.0,49,0.00,,---,0.00,VWS V14.00,2013-05-29 04:06:00,
2013-05-28 21:11:00,75.1,54.7,29.58,NW,323,30.0,40.0,49,0.00,,---,0.00,VWS V14.00,2013-05-29 04:11:00,
2013-05-28 21:20:00,75.2,54.2,29.58,WNW,299,29.0,46.0,48,0.00,,---,0.00,VWS V14.00,2013-05-29 04:20:00,
2013-05-28 21:25:00,75.1,54.7,29.58,NW,312,20.0,43.0,49,0.00,,---,0.00,VWS V14.00,2013-05-29 04:25:00,
2013-05-28 21:30:00,74.7,54.3,29.59,NW,319,25.0,40.0,49,0.00,,---,0.00,VWS V14.00,2013-05-29 04:30:00,
2013-05-28 21:35:00,74.7,54.3,29.59,NW,311,26.0,45.0,49,0.00,,---,0.00,VWS V14.00,2013-05-29 04:35:00,
2013-05-28 21:40:00,74.6,54.2,29.59,WNW,299,23.0,37.0,49,0.00,,---,0.00,VWS V14.00,2013-05-29 04:40:00,
2013-05-28 21:46:00,74.7,54.3,29.59,NW,311,30.0,39.0,49,0.00,,---,0.00,VWS V14.00,2013-05-29 04:46:00,
2013-05-28 21:51:00,74.6,54.2,29.60,NW,322,22.0,41.0,49,0.00,,---,0.00,VWS V14.00,2013-05-29 04:51:00,
2013-05-28 21:56:00,74.4,54.0,29.59,North,360,25.0,44.0,49,0.00,,---,0.00,VWS V14.00,2013-05-29 04:56:00,
2013-05-28 22:01:00,74.4,54.0,29.60,WNW,289,30.0,43.0,49,0.00,,---,0.00,VWS V14.00,2013-05-29 05:01:00,
2013-05-28 22:06:00,74.4,54.0,29.60,WNW,294,28.0,37.0,49,0.00,,---,0.00,VWS V14.00,2013-05-29 05:06:00,
2013-05-28 22:11:00,74.3,53.4,29.60,NW,306,30.0,37.0,48,0.00,,---,0.00,VWS V14.00,2013-05-29 05:11:00,
2013-05-28 22:16:00,74.2,53.8,29.60,WNW,293,20.0,35.0,49,0.00,,---,0.00,VWS V14.00,2013-05-29 05:16:00,
2013-05-28 22:21:00,74.2,53.8,29.60,WNW,289,29.0,38.0,49,0.00,,---,0.00,VWS V14.00,2013-05-29 05:21:00,
2013-05-28 22:26:00,74.0,53.7,29.60,WNW,293,28.0,34.0,49,0.00,,---,0.00,VWS V14.00,2013-05-29 05:26:00,
2013-05-28 22:31:00,73.9,53.6,29.60,NW,304,24.0,38.0,49,0.00,,---,0.00,VWS V14.00,2013-05-29 05:31:00,
2013-05-28 22:36:00,73.9,53.6,29.60,WNW,294,19.0,35.0,49,0.00,,---,0.00,VWS V14.00,2013-05-29 05:36:00,
2013-05-28 22:41:00,73.8,53.5,29.61,NW,304,30.0,37.0,49,0.00,,---,0.00,VWS V14.00,2013-05-29 05:41:00,
2013-05-28 22:46:00,73.9,53.6,29.61,NW,315,30.0,35.0,49,0.00,,---,0.00,VWS V14.00,2013-05-29 05:46:00,
2013-05-28 22:51:00,73.8,53.5,29.61,NW,315,15.0,32.0,49,0.00,,---,0.00,VWS V14.00,2013-05-29 05:51:00,
2013-05-28 22:56:00,73.8,53.5,29.60,WNW,297,22.0,30.0,49,0.00,,---,0.00,VWS V14.00,2013-05-29 05:56:00,
2013-05-28 23:01:00,73.8,52.9,29.61,NW,307,22.0,29.0,48,0.00,,---,0.00,VWS V14.00,2013-05-29 06:01:00,
2013-05-28 23:06:00,73.9,53.0,29.60,NW,315,22.0,34.0,48,0.00,,---,0.00,VWS V14.00,2013-05-29 06:06:00,
2013-05-28 23:11:00,73.8,52.9,29.60,NW,318,33.0,34.0,48,0.00,,---,0.00,VWS V14.00,2013-05-29 06:11:00,
2013-05-28 23:16:00,73.8,52.9,29.60,WNW,293,21.0,34.0,48,0.00,,---,0.00,VWS V14.00,2013-05-29 06:16:00,
2013-05-28 23:21:00,73.8,52.9,29.60,WNW,292,25.0,36.0,48,0.00,,---,0.00,VWS V14.00,2013-05-29 06:21:00,
2013-05-28 23:26:00,73.6,52.7,29.60,WNW,296,16.0,34.0,48,0.00,,---,0.00,VWS V14.00,2013-05-29 06:26:00,
2013-05-28 23:31:00,73.5,52.6,29.60,NW,314,26.0,38.0,48,0.00,,---,0.00,VWS V14.00,2013-05-29 06:31:00,
2013-05-28 23:36:00,73.4,52.5,29.60,WNW,298,20.0,37.0,48,0.00,,---,0.00,VWS V14.00,2013-05-29 06:36:00,
2013-05-28 23:41:00,73.4,52.0,29.60,NW,321,24.0,38.0,47,0.00,,---,0.00,VWS V14.00,2013-05-29 06:41:00,
2013-05-28 23:46:00,73.4,52.0,29.60,WNW,300,21.0,36.0,47,0.00,,---,0.00,VWS V14.00,2013-05-29 06:46:00,
2013-05-28 23:51:00,73.1,52.3,29.60,NW,321,21.0,30.0,48,0.00,,---,0.00,VWS V14.00,2013-05-29 06:51:00,
2013-05-28 23:56:00,72.9,52.1,29.60,NW,326,20.0,28.0,48,0.00,,---,0.00,VWS V14.00,2013-05-29 06:56:00,